Regional Weather Roundup
Issued by NWS Newport/Morehead, NC

Current Version | Previous Version | Graphics & Text | Print | Product List | Glossary On
Versions: 1 2 3 4 5 6 7 8 9 10 11 12 13 14 15 16 17 18 19 20 21 22 23 24 25 26 27 28 29 30 31 32 33 34 35 36 37 38 39 40 41 42 43 44 45 46 47 48 49 50
000 ASUS42 KMHX 271213 RWRMHX WEATHER ROUNDUP FOR EASTERN NORTH CAROLINA NATIONAL WEATHER SERVICE NEWPORT/MOREHEAD CITY NC 800 AM EDT WED MAY 27 2015 NOTE: "FAIR" INDICATES FEW OR NO CLOUDS BELOW 12,000 FEET WITH NO SIGNIFICANT WEATHER AND/OR OBSTRUCTIONS TO VISIBILITY NCZ015>017-031-032-045>047-102-103-271300- NORTH COAST CITY SKY/WX TMP DP RH WIND PRES REMARKS EDENTON CLOUDY 74 68 82 S9 30.25S ELIZABETH CITY PTSUNNY 74 67 78 S9 30.26R KITTY HAWK PTSUNNY 74 66 74 S7 30.26S MANTEO PTSUNNY 74 65 74 S14 30.28R $$ NCZ045>047-081-094-103-104-271300- CENTRAL COAST CITY SKY/WX TMP DP RH WIND PRES REMARKS FRISCO MOSUNNY 74 63 68 S12 30.29S SWANQUARTER N/A 77 N/A N/A S9G15 30.24S $$ NCZ095-097-098-100-101-271300- SOUTHERN COAST CITY SKY/WX TMP DP RH WIND PRES REMARKS BEAUFORT MOSUNNY 76 67 73 S9 30.26F CEDAR ISLAND N/A 75 N/A N/A S6 30.30S JACKSONVILLE PTSUNNY 77 69 76 S9 30.25S PINEY ISLAND CLOUDY N/A N/A N/A S6 30.27R WILMINGTON SUNNY 77 69 76 S7 30.25R $$ NCZ011>013-027>030-043-044-078>080-089-090>093-098-271300- COASTAL PLAIN CITY SKY/WX TMP DP RH WIND PRES REMARKS AHOSKIE MOSUNNY 73 68 86 CALM 30.25R CLINTON SUNNY 73 71 93 S6 30.26R ELIZABETHTOWN SUNNY 72 72 100 S3 30.25R GOLDSBORO MOSUNNY 73 70 92 S2 30.23R GREENVILLE PTSUNNY 75 70 83 S9 30.26R HAVELOCK MOSUNNY 76 68 76 SE8 30.27S KENANSVILLE MOSUNNY 73 70 92 SE3 30.27R KINSTON PTSUNNY 73 70 88 S7 30.26R NEW BERN PTSUNNY 76 68 76 S6 30.27R RICHLANDS PTSUNNY 73 70 88 CALM 30.26R ROCKY MOUNT CLOUDY 74 70 87 S8 30.25R WASHINGTON CLOUDY 72 68 87 S6 30.26R WHITEVILLE MOSUNNY 74 70 87 S5 30.26R $$ AMZ130-135-150-152-154-156-158-170-250-252-270-ANZ085-086-088-633-658-670-271300- MARINE OBSERVATIONS STATION/POSITION TIME TEMP WIND PRES WAVE SWELL AIR SEA DIR/SP/G HT/PER HT/PER (UTC) (F) (DEG/KT/KT) (MB) (FT/S) (FT/S) CHESAPEAKE LIGHT 1100 67 180/ 22/ 22 1023.8 64 E VA BEACH 1150 66 63 170/ 10/ 10 1025.0 3/ 5 3/ 5 DUCK 1100 72 57 180/ 11/ 16 1023.5 2 E DUCK 1111 61 N/A 2/ 5 OREGON INLET 1100 73 75 180/ 11/ 14 1025.1 13E OREGON INLT 1200 68 N/A 3/ 5 HATTERAS CG 1100 74 75 170/ 7/ 10 1024.9 DIAMOND BUOY 1150 75 76 170/ 10/ 14 1025.8 3/ 5 2/ 7 CAPE LOOKOUT 1200 75 160/ 7/ 7 1024.7 BEAUFORT LAB 1100 75 75 180/ 9/ 11 1024.0 27 SE WRIGHTSVLE 1100 73 76 170/ 8/ 10 N/A 5 SE WRIGHTSVLE 1108 77 76 170/ 10/ 12 1024.2 225 S CAPE HAT 1150 73 74 90/ 8/ 10 1026.0 4/ 6 3/ 6 41 SE CHARLESTON 1150 78 77 150/ 8/ 10 1023.5 3/ 7 3/ 7 $$

USA.gov is the U.S. government's official web portal to all federal, state and local government web resources and services.